Time,TemperatureF,DewpointF,PressureIn,WindDirection,WindDirectionDegrees,WindSpeedMPH,WindSpeedGustMPH,Humidity,HourlyPrecipIn,Conditions,Clouds,dailyrainin,SoftwareType,DateUTC
2013-02-27 00:00:00,26.5,21.1,30.12,ESE,110,0.0,0.0,80,0.00,,---,0.00,VWS V14.01,2013-02-27 07:00:00,
2013-02-27 00:06:00,26.5,20.9,30.12,ESE,110,0.0,0.0,79,0.00,,---,0.00,VWS V14.01,2013-02-27 07:06:00,
2013-02-27 00:11:00,26.6,20.5,30.12,ENE,59,0.0,0.0,77,0.00,,---,0.00,VWS V14.01,2013-02-27 07:11:00,
2013-02-27 00:16:00,26.7,20.2,30.12,NNE,30,0.0,0.0,76,0.00,,---,0.00,VWS V14.01,2013-02-27 07:16:00,
2013-02-27 00:21:00,26.6,20.0,30.12,NNE,30,0.0,0.0,76,0.00,,---,0.00,VWS V14.01,2013-02-27 07:21:00,
2013-02-27 00:26:00,26.5,19.9,30.12,NNE,30,0.0,0.0,76,0.00,,---,0.00,VWS V14.01,2013-02-27 07:26:00,
2013-02-27 00:31:00,26.3,19.9,30.13,NNE,30,0.0,0.0,76,0.00,,---,0.00,VWS V14.01,2013-02-27 07:31:00,
2013-02-27 00:36:00,26.1,19.7,30.13,NNE,30,0.0,0.0,76,0.00,,---,0.00,VWS V14.01,2013-02-27 07:36:00,
2013-02-27 00:41:00,26.0,19.6,30.13,NNE,30,0.0,0.0,76,0.00,,---,0.00,VWS V14.01,2013-02-27 07:41:00,
2013-02-27 00:46:00,25.8,19.5,30.13,NNE,30,0.0,0.0,77,0.00,,---,0.00,VWS V14.01,2013-02-27 07:46:00,
2013-02-27 00:51:00,25.6,19.4,30.13,NNE,30,0.0,0.0,77,0.00,,---,0.00,VWS V14.01,2013-02-27 07:51:00,
2013-02-27 00:56:00,25.5,19.3,30.13,NNE,30,0.0,0.0,77,0.00,,---,0.00,VWS V14.01,2013-02-27 07:56:00,
2013-02-27 01:01:00,25.3,19.2,30.13,NNE,30,0.0,0.0,77,0.00,,---,0.00,VWS V14.01,2013-02-27 08:01:00,
2013-02-27 01:06:00,25.3,19.1,30.13,NNE,30,0.0,0.0,77,0.00,,---,0.00,VWS V14.01,2013-02-27 08:06:00,
2013-02-27 01:11:00,25.2,19.1,30.13,NNE,30,0.0,0.0,77,0.00,,---,0.00,VWS V14.01,2013-02-27 08:11:00,
2013-02-27 01:16:00,25.2,19.0,30.14,NNE,30,0.0,0.0,77,0.00,,---,0.00,VWS V14.01,2013-02-27 08:16:00,
2013-02-27 01:21:00,25.2,19.0,30.14,NNE,30,0.0,0.0,77,0.00,,---,0.00,VWS V14.01,2013-02-27 08:21:00,
2013-02-27 01:26:00,25.2,19.0,30.14,NNE,30,0.0,0.0,77,0.00,,---,0.00,VWS V14.01,2013-02-27 08:26:00,
2013-02-27 01:31:00,25.1,18.6,30.14,NNE,30,0.0,0.0,76,0.00,,---,0.00,VWS V14.01,2013-02-27 08:31:00,
2013-02-27 01:36:00,25.1,18.4,30.14,NNE,30,0.0,0.0,75,0.00,,---,0.00,VWS V14.01,2013-02-27 08:36:00,
2013-02-27 01:41:00,25.0,18.2,30.14,NNE,30,0.0,0.0,75,0.00,,---,0.00,VWS V14.01,2013-02-27 08:41:00,
2013-02-27 01:46:00,25.0,17.9,30.14,NNE,30,0.0,0.0,74,0.00,,---,0.00,VWS V14.01,2013-02-27 08:46:00,
2013-02-27 01:51:00,25.0,17.8,30.14,NNE,30,0.0,0.0,74,0.00,,---,0.00,VWS V14.01,2013-02-27 08:51:00,
2013-02-27 01:56:00,25.0,17.6,30.14,NNE,30,0.0,0.0,73,0.00,,---,0.00,VWS V14.01,2013-02-27 08:56:00,
2013-02-27 02:01:00,25.0,17.6,30.14,NNE,30,0.0,0.0,73,0.00,,---,0.00,VWS V14.01,2013-02-27 09:01:00,
2013-02-27 02:06:00,25.0,17.5,30.14,NNE,30,0.0,0.0,73,0.00,,---,0.00,VWS V14.01,2013-02-27 09:06:00,
2013-02-27 02:11:00,25.0,17.4,30.14,NNE,30,0.0,0.0,72,0.00,,---,0.00,VWS V14.01,2013-02-27 09:11:00,
2013-02-27 02:16:00,25.0,17.5,30.14,NNE,30,0.0,0.0,73,0.00,,---,0.00,VWS V14.01,2013-02-27 09:16:00,
2013-02-27 02:21:00,25.0,17.4,30.14,NNE,30,0.0,0.0,72,0.00,,---,0.00,VWS V14.01,2013-02-27 09:21:00,
2013-02-27 02:26:00,24.9,17.1,30.14,NNE,30,0.0,0.0,72,0.00,,---,0.00,VWS V14.01,2013-02-27 09:26:00,
2013-02-27 02:31:00,24.9,17.2,30.14,NNE,30,0.0,0.0,72,0.00,,---,0.00,VWS V14.01,2013-02-27 09:31:00,
2013-02-27 02:36:00,24.8,17.1,30.13,NNE,30,0.0,0.0,72,0.00,,---,0.00,VWS V14.01,2013-02-27 09:36:00,
2013-02-27 02:41:00,24.7,17.0,30.14,NNE,30,0.0,0.0,72,0.00,,---,0.00,VWS V14.01,2013-02-27 09:41:00,
2013-02-27 02:46:00,24.6,16.9,30.13,NNE,30,0.0,0.0,72,0.00,,---,0.00,VWS V14.01,2013-02-27 09:46:00,
2013-02-27 02:51:00,24.5,16.7,30.13,NNE,30,0.0,0.0,72,0.00,,---,0.00,VWS V14.01,2013-02-27 09:51:00,
2013-02-27 02:56:00,24.4,16.6,30.13,NNE,30,0.0,0.0,72,0.00,,---,0.00,VWS V14.01,2013-02-27 09:56:00,
2013-02-27 03:01:00,24.3,16.5,30.14,NNE,30,0.0,0.0,72,0.00,,---,0.00,VWS V14.01,2013-02-27 10:01:00,
2013-02-27 03:06:00,24.1,16.7,30.14,NNE,30,0.0,0.0,73,0.00,,---,0.00,VWS V14.01,2013-02-27 10:06:00,
2013-02-27 03:11:00,23.9,16.7,30.14,NNE,30,0.0,0.0,74,0.00,,---,0.00,VWS V14.01,2013-02-27 10:11:00,
2013-02-27 03:16:00,23.8,16.5,30.14,NNE,30,0.0,0.0,73,0.00,,---,0.00,VWS V14.01,2013-02-27 10:16:00,
2013-02-27 03:21:00,23.7,16.5,30.14,NNE,30,0.0,0.0,74,0.00,,---,0.00,VWS V14.01,2013-02-27 10:21:00,
2013-02-27 03:26:00,23.6,16.5,30.14,NNE,30,0.0,0.0,74,0.00,,---,0.00,VWS V14.01,2013-02-27 10:26:00,
2013-02-27 03:31:00,23.5,16.6,30.14,NNE,30,0.0,0.0,75,0.00,,---,0.00,VWS V14.01,2013-02-27 10:31:00,
2013-02-27 03:36:00,23.4,16.8,30.14,NNE,30,0.0,0.0,75,0.00,,---,0.00,VWS V14.01,2013-02-27 10:36:00,
2013-02-27 03:42:00,23.1,16.8,30.14,NNE,30,0.0,0.0,76,0.00,,---,0.00,VWS V14.01,2013-02-27 10:42:00,
2013-02-27 03:47:00,22.9,16.8,30.14,NNE,30,0.0,0.0,77,0.00,,---,0.00,VWS V14.01,2013-02-27 10:47:00,
2013-02-27 03:52:00,22.7,16.8,30.14,NNE,30,0.0,0.0,78,0.00,,---,0.00,VWS V14.01,2013-02-27 10:52:00,
2013-02-27 03:57:00,22.4,16.7,30.15,NNE,30,0.0,0.0,78,0.00,,---,0.00,VWS V14.01,2013-02-27 10:57:00,
2013-02-27 04:02:00,22.1,16.6,30.15,NNE,30,0.0,0.0,79,0.00,,---,0.00,VWS V14.01,2013-02-27 11:02:00,
2013-02-27 04:07:00,21.8,16.5,30.15,NNE,30,0.0,0.0,80,0.00,,---,0.00,VWS V14.01,2013-02-27 11:07:00,
2013-02-27 04:12:00,21.4,16.2,30.16,NNE,30,0.0,0.0,80,0.00,,---,0.00,VWS V14.01,2013-02-27 11:12:00,
2013-02-27 04:17:00,21.1,16.2,30.17,NNE,30,0.0,0.0,81,0.00,,---,0.00,VWS V14.01,2013-02-27 11:17:00,
2013-02-27 04:22:00,20.8,16.0,30.17,NNE,30,0.0,0.0,81,0.00,,---,0.00,VWS V14.01,2013-02-27 11:22:00,
2013-02-27 04:27:00,20.6,15.9,30.17,NNE,30,0.0,0.0,82,0.00,,---,0.00,VWS V14.01,2013-02-27 11:27:00,
2013-02-27 04:32:00,20.2,15.7,30.17,NNE,30,0.0,0.0,82,0.00,,---,0.00,VWS V14.01,2013-02-27 11:32:00,
2013-02-27 04:37:00,20.1,15.7,30.17,NNE,30,0.0,0.0,83,0.00,,---,0.00,VWS V14.01,2013-02-27 11:37:00,
2013-02-27 04:42:00,19.9,15.5,30.17,NNE,30,0.0,0.0,83,0.00,,---,0.00,VWS V14.01,2013-02-27 11:42:00,
2013-02-27 04:47:00,19.7,15.4,30.18,NNE,30,0.0,0.0,83,0.00,,---,0.00,VWS V14.01,2013-02-27 11:47:00,
2013-02-27 04:52:00,19.5,15.2,30.18,NNE,30,0.0,0.0,83,0.00,,---,0.00,VWS V14.01,2013-02-27 11:52:00,
2013-02-27 04:57:00,19.3,15.1,30.18,NNE,30,0.0,0.0,84,0.00,,---,0.00,VWS V14.01,2013-02-27 11:57:00,
2013-02-27 05:02:00,19.2,15.1,30.18,NNE,30,0.0,0.0,84,0.00,,---,0.00,VWS V14.01,2013-02-27 12:02:00,
2013-02-27 05:07:00,19.1,15.0,30.18,NNE,30,0.0,0.0,84,0.00,,---,0.00,VWS V14.01,2013-02-27 12:07:00,
2013-02-27 05:12:00,18.9,14.8,30.18,NNE,30,0.0,0.0,84,0.00,,---,0.00,VWS V14.01,2013-02-27 12:12:00,
2013-02-27 05:17:00,18.7,14.7,30.18,NNE,30,0.0,0.0,84,0.00,,---,0.00,VWS V14.01,2013-02-27 12:17:00,
2013-02-27 05:22:00,18.7,14.7,30.18,NNE,30,0.0,0.0,84,0.00,,---,0.00,VWS V14.01,2013-02-27 12:22:00,
2013-02-27 05:27:00,18.7,14.7,30.19,NNE,30,0.0,0.0,84,0.00,,---,0.00,VWS V14.01,2013-02-27 12:27:00,
2013-02-27 05:32:00,18.5,14.5,30.19,NNE,30,0.0,0.0,84,0.00,,---,0.00,VWS V14.01,2013-02-27 12:32:00,
2013-02-27 05:37:00,18.4,14.5,30.19,NNE,30,0.0,0.0,84,0.00,,---,0.00,VWS V14.01,2013-02-27 12:37:00,
2013-02-27 05:42:00,18.2,14.3,30.19,NNE,30,0.0,0.0,84,0.00,,---,0.00,VWS V14.01,2013-02-27 12:42:00,
2013-02-27 05:47:00,18.1,14.3,30.20,NNE,30,0.0,0.0,85,0.00,,---,0.00,VWS V14.01,2013-02-27 12:47:00,
2013-02-27 05:52:00,18.0,14.3,30.20,NNE,30,0.0,0.0,85,0.00,,---,0.00,VWS V14.01,2013-02-27 12:52:00,
2013-02-27 05:57:00,17.9,14.2,30.20,NNE,30,0.0,0.0,85,0.00,,---,0.00,VWS V14.01,2013-02-27 12:57:00,
2013-02-27 06:02:00,17.8,14.1,30.20,NNE,30,0.0,0.0,85,0.00,,---,0.00,VWS V14.01,2013-02-27 13:02:00,
2013-02-27 06:07:00,17.6,13.9,30.20,NNE,30,0.0,0.0,85,0.00,,---,0.00,VWS V14.01,2013-02-27 13:07:00,
2013-02-27 06:12:00,17.6,14.1,30.20,NNE,30,0.0,0.0,86,0.00,,---,0.00,VWS V14.01,2013-02-27 13:12:00,
2013-02-27 06:17:00,17.7,14.2,30.20,NNE,30,0.0,0.0,86,0.00,,---,0.00,VWS V14.01,2013-02-27 13:17:00,
2013-02-27 06:22:00,17.9,14.3,30.21,NNE,30,0.0,0.0,86,0.00,,---,0.00,VWS V14.01,2013-02-27 13:22:00,
2013-02-27 06:27:00,18.1,14.5,30.21,WSW,245,0.0,0.0,86,0.00,,---,0.00,VWS V14.01,2013-02-27 13:27:00,
2013-02-27 06:32:00,18.3,14.6,30.21,WSW,245,0.0,0.0,85,0.00,,---,0.00,VWS V14.01,2013-02-27 13:32:00,
2013-02-27 06:37:00,18.5,14.8,30.21,WSW,245,0.0,0.0,85,0.00,,---,0.00,VWS V14.01,2013-02-27 13:37:00,
2013-02-27 06:42:00,18.6,14.8,30.21,WSW,245,0.0,0.0,85,0.00,,---,0.00,VWS V14.01,2013-02-27 13:42:00,
2013-02-27 06:47:00,18.6,14.7,30.21,SW,221,0.0,0.0,85,0.00,,---,0.00,VWS V14.01,2013-02-27 13:47:00,
2013-02-27 06:52:00,18.7,14.7,30.21,SW,221,0.0,0.0,84,0.00,,---,0.00,VWS V14.01,2013-02-27 13:52:00,
2013-02-27 06:57:00,18.9,14.9,30.21,SW,221,0.0,0.0,84,0.00,,---,0.00,VWS V14.01,2013-02-27 13:57:00,
2013-02-27 07:02:00,18.9,14.8,30.21,SW,221,0.0,0.0,84,0.00,,---,0.00,VWS V14.01,2013-02-27 14:02:00,
2013-02-27 07:07:00,18.8,14.6,30.22,SW,221,0.0,0.0,84,0.00,,---,0.00,VWS V14.01,2013-02-27 14:07:00,
2013-02-27 07:12:00,18.8,14.7,30.22,SW,221,0.0,0.0,84,0.00,,---,0.00,VWS V14.01,2013-02-27 14:12:00,
2013-02-27 07:17:00,18.8,14.6,30.22,SW,221,0.0,0.0,83,0.00,,---,0.00,VWS V14.01,2013-02-27 14:17:00,
2013-02-27 07:23:00,19.0,14.8,30.22,SW,221,0.0,0.0,84,0.00,,---,0.00,VWS V14.01,2013-02-27 14:23:00,
2013-02-27 07:28:00,19.3,15.1,30.22,SW,221,0.0,0.0,83,0.00,,---,0.00,VWS V14.01,2013-02-27 14:28:00,
2013-02-27 07:33:00,19.6,15.2,30.22,WSW,249,0.0,0.0,83,0.00,,---,0.00,VWS V14.01,2013-02-27 14:33:00,
2013-02-27 07:38:00,20.0,15.5,30.22,WSW,249,0.0,0.0,82,0.00,,---,0.00,VWS V14.01,2013-02-27 14:38:00,
2013-02-27 07:43:00,20.4,15.9,30.22,West,259,0.0,3.3,82,0.00,,---,0.00,VWS V14.01,2013-02-27 14:43:00,
2013-02-27 07:48:00,20.9,15.9,30.22,West,259,0.0,0.0,81,0.00,,---,0.00,VWS V14.01,2013-02-27 14:48:00,
2013-02-27 07:53:00,21.3,16.0,30.22,WSW,239,0.0,0.0,80,0.00,,---,0.00,VWS V14.01,2013-02-27 14:53:00,
2013-02-27 07:58:00,21.8,16.5,30.23,WSW,239,0.0,0.0,80,0.00,,---,0.00,VWS V14.01,2013-02-27 14:58:00,
2013-02-27 08:03:00,22.3,16.7,30.23,WSW,255,0.0,0.0,79,0.00,,---,0.00,VWS V14.01,2013-02-27 15:03:00,
2013-02-27 08:08:00,22.6,16.5,30.23,WSW,257,3.2,4.2,77,0.00,,---,0.00,VWS V14.01,2013-02-27 15:08:00,
2013-02-27 08:13:00,22.9,16.5,30.23,West,266,0.0,0.0,76,0.00,,---,0.00,VWS V14.01,2013-02-27 15:13:00,
2013-02-27 08:18:00,23.1,16.5,30.23,West,267,0.0,0.0,76,0.00,,---,0.00,VWS V14.01,2013-02-27 15:18:00,
2013-02-27 08:23:00,23.5,16.7,30.23,WSW,255,3.2,4.3,75,0.00,,---,0.00,VWS V14.01,2013-02-27 15:23:00,
2013-02-27 08:28:00,24.0,16.8,30.22,WNW,301,0.0,0.0,74,0.00,,---,0.00,VWS V14.01,2013-02-27 15:28:00,
2013-02-27 08:33:00,24.4,17.0,30.23,SW,236,5.9,5.9,73,0.00,,---,0.00,VWS V14.01,2013-02-27 15:33:00,
2013-02-27 08:38:00,24.8,17.1,30.23,WNW,287,0.0,5.2,72,0.00,,---,0.00,VWS V14.01,2013-02-27 15:38:00,
2013-02-27 08:43:00,25.3,17.5,30.23,WSW,239,0.0,1.1,72,0.00,,---,0.00,VWS V14.01,2013-02-27 15:43:00,
2013-02-27 08:48:00,25.7,17.6,30.23,WNW,285,0.0,0.0,71,0.00,,---,0.00,VWS V14.01,2013-02-27 15:48:00,
2013-02-27 08:53:00,26.2,17.6,30.23,NW,305,0.0,4.2,70,0.00,,---,0.00,VWS V14.01,2013-02-27 15:53:00,
2013-02-27 08:58:00,26.6,17.8,30.23,WNW,288,4.6,4.6,69,0.00,,---,0.00,VWS V14.01,2013-02-27 15:58:00,
2013-02-27 09:03:00,27.1,18.1,30.23,WNW,284,0.0,0.0,68,0.00,,---,0.00,VWS V14.01,2013-02-27 16:03:00,
2013-02-27 09:08:00,27.6,18.2,30.23,WNW,292,0.0,0.0,67,0.00,,---,0.00,VWS V14.01,2013-02-27 16:08:00,
2013-02-27 09:13:00,27.9,18.2,30.23,NW,319,0.0,0.0,66,0.00,,---,0.00,VWS V14.01,2013-02-27 16:13:00,
2013-02-27 09:18:00,28.4,18.4,30.23,West,281,0.0,0.0,66,0.00,,---,0.00,VWS V14.01,2013-02-27 16:18:00,
2013-02-27 09:23:00,28.8,18.5,30.23,West,281,0.0,0.0,65,0.00,,---,0.00,VWS V14.01,2013-02-27 16:23:00,
2013-02-27 09:28:00,29.3,18.7,30.23,WSW,250,0.0,0.0,64,0.00,,---,0.00,VWS V14.01,2013-02-27 16:28:00,
2013-02-27 09:33:00,29.7,18.8,30.23,WSW,250,0.0,0.0,63,0.00,,---,0.00,VWS V14.01,2013-02-27 16:33:00,
2013-02-27 09:38:00,30.0,18.5,30.23,West,262,0.0,0.0,62,0.00,,---,0.00,VWS V14.01,2013-02-27 16:38:00,
2013-02-27 09:43:00,30.5,18.7,30.23,West,271,1.7,5.4,61,0.00,,---,0.00,VWS V14.01,2013-02-27 16:43:00,
2013-02-27 09:48:00,30.9,18.6,30.22,WSW,246,2.8,4.5,60,0.00,,---,0.00,VWS V14.01,2013-02-27 16:48:00,
2013-02-27 09:53:00,31.1,18.3,30.22,SSW,202,0.0,0.0,59,0.00,,---,0.00,VWS V14.01,2013-02-27 16:53:00,
2013-02-27 09:58:00,31.6,18.6,30.23,SSW,211,0.0,0.0,58,0.00,,---,0.00,VWS V14.01,2013-02-27 16:58:00,
2013-02-27 10:04:00,32.2,19.2,30.22,SSW,201,0.0,0.0,58,0.00,,---,0.00,VWS V14.01,2013-02-27 17:04:00,
2013-02-27 10:09:00,32.6,18.7,30.22,SSW,212,0.0,0.0,56,0.00,,---,0.00,VWS V14.01,2013-02-27 17:09:00,
2013-02-27 10:14:00,32.9,18.7,30.22,South,188,2.4,4.5,55,0.00,,---,0.00,VWS V14.01,2013-02-27 17:14:00,
2013-02-27 10:19:00,33.6,19.0,30.23,WSW,240,0.0,0.0,55,0.00,,---,0.00,VWS V14.01,2013-02-27 17:19:00,
2013-02-27 10:24:00,34.1,18.5,30.23,WSW,240,0.0,0.0,52,0.00,,---,0.00,VWS V14.01,2013-02-27 17:24:00,
2013-02-27 10:29:00,34.4,18.2,30.23,West,267,5.8,6.4,51,0.00,,---,0.00,VWS V14.01,2013-02-27 17:29:00,
2013-02-27 10:34:00,34.8,18.1,30.22,South,179,0.0,4.4,50,0.00,,---,0.00,VWS V14.01,2013-02-27 17:34:00,
2013-02-27 10:39:00,35.1,17.3,30.23,SSW,212,0.0,0.0,48,0.00,,---,0.00,VWS V14.01,2013-02-27 17:39:00,
2013-02-27 10:44:00,35.3,16.9,30.22,SSW,212,0.0,0.0,47,0.00,,---,0.00,VWS V14.01,2013-02-27 17:44:00,
2013-02-27 10:49:00,35.1,14.8,30.22,SSW,212,0.0,0.0,43,0.00,,---,0.00,VWS V14.01,2013-02-27 17:49:00,
2013-02-27 10:54:00,34.9,13.8,30.22,SSW,212,0.0,0.0,41,0.00,,---,0.00,VWS V14.01,2013-02-27 17:54:00,
2013-02-27 10:59:00,35.2,15.3,30.22,SSW,212,0.0,0.0,44,0.00,,---,0.00,VWS V14.01,2013-02-27 17:59:00,
2013-02-27 11:04:00,35.6,14.4,30.22,ESE,103,0.0,0.0,41,0.00,,---,0.00,VWS V14.01,2013-02-27 18:04:00,
2013-02-27 11:09:00,35.6,13.8,30.22,NNE,17,0.0,0.0,40,0.00,,---,0.00,VWS V14.01,2013-02-27 18:09:00,
2013-02-27 11:14:00,36.0,14.0,30.22,NE,38,0.0,0.0,40,0.00,,---,0.00,VWS V14.01,2013-02-27 18:14:00,
2013-02-27 11:19:00,36.4,13.1,30.22,NNW,347,0.0,2.6,38,0.00,,---,0.00,VWS V14.01,2013-02-27 18:19:00,
2013-02-27 11:24:00,36.2,12.4,30.22,ESE,122,0.0,5.8,37,0.00,,---,0.00,VWS V14.01,2013-02-27 18:24:00,
2013-02-27 11:29:00,36.0,12.5,30.22,ENE,73,0.0,0.0,37,0.00,,---,0.00,VWS V14.01,2013-02-27 18:29:00,
2013-02-27 11:34:00,36.2,12.9,30.22,ENE,73,0.0,0.0,38,0.00,,---,0.00,VWS V14.01,2013-02-27 18:34:00,
2013-02-27 11:39:00,36.5,12.7,30.21,ENE,73,0.0,0.0,37,0.00,,---,0.00,VWS V14.01,2013-02-27 18:39:00,
2013-02-27 11:44:00,36.7,12.9,30.21,SE,125,0.0,0.0,37,0.00,,---,0.00,VWS V14.01,2013-02-27 18:44:00,
2013-02-27 11:49:00,36.9,11.9,30.21,ENE,63,4.7,6.5,35,0.00,,---,0.00,VWS V14.01,2013-02-27 18:49:00,
2013-02-27 11:54:00,36.6,11.6,30.21,SE,129,0.0,0.0,35,0.00,,---,0.00,VWS V14.01,2013-02-27 18:54:00,
2013-02-27 11:59:00,36.6,11.7,30.21,SE,129,0.0,0.0,35,0.00,,---,0.00,VWS V14.01,2013-02-27 18:59:00,
2013-02-27 12:04:00,37.0,12.9,30.21,SE,129,0.0,0.0,37,0.00,,---,0.00,VWS V14.01,2013-02-27 19:04:00,
2013-02-27 12:09:00,37.8,14.4,30.21,South,176,0.0,0.0,38,0.00,,---,0.00,VWS V14.01,2013-02-27 19:09:00,
2013-02-27 12:14:00,38.3,14.3,30.21,South,172,0.0,0.0,37,0.00,,---,0.00,VWS V14.01,2013-02-27 19:14:00,
2013-02-27 12:19:00,38.1,13.3,30.20,ENE,73,0.0,4.7,36,0.00,,---,0.00,VWS V14.01,2013-02-27 19:19:00,
2013-02-27 12:24:00,38.0,13.0,30.20,ENE,73,3.1,3.1,35,0.00,,---,0.00,VWS V14.01,2013-02-27 19:24:00,
2013-02-27 12:29:00,38.1,12.4,30.20,ENE,73,0.0,0.0,34,0.00,,---,0.00,VWS V14.01,2013-02-27 19:29:00,
2013-02-27 12:34:00,37.9,12.2,30.20,ESE,117,0.0,0.0,34,0.00,,---,0.00,VWS V14.01,2013-02-27 19:34:00,
2013-02-27 12:39:00,37.9,13.1,30.20,SW,224,0.0,0.0,36,0.00,,---,0.00,VWS V14.01,2013-02-27 19:39:00,
2013-02-27 12:44:00,38.4,13.7,30.20,SW,224,0.0,0.0,36,0.00,,---,0.00,VWS V14.01,2013-02-27 19:44:00,
2013-02-27 12:49:00,38.2,13.4,30.20,SE,135,4.7,6.0,36,0.00,,---,0.00,VWS V14.01,2013-02-27 19:49:00,
2013-02-27 12:54:00,38.0,13.9,30.20,South,170,0.0,0.0,37,0.00,,---,0.00,VWS V14.01,2013-02-27 19:54:00,
2013-02-27 12:59:00,37.8,12.9,30.20,East,98,0.0,4.5,36,0.00,,---,0.00,VWS V14.01,2013-02-27 19:59:00,
2013-02-27 13:04:00,37.7,13.3,30.20,South,174,0.0,0.0,36,0.00,,---,0.00,VWS V14.01,2013-02-27 20:04:00,
2013-02-27 13:09:00,37.4,12.3,30.20,SSE,158,0.0,0.0,35,0.00,,---,0.00,VWS V14.01,2013-02-27 20:09:00,
2013-02-27 13:14:00,37.5,13.4,30.20,SSE,149,0.0,0.0,37,0.00,,---,0.00,VWS V14.01,2013-02-27 20:14:00,
2013-02-27 13:19:00,38.1,14.0,30.20,SE,142,2.7,2.7,37,0.00,,---,0.00,VWS V14.01,2013-02-27 20:19:00,
2013-02-27 13:24:00,38.3,12.4,30.20,East,96,2.5,3.4,34,0.00,,---,0.00,VWS V14.01,2013-02-27 20:24:00,
2013-02-27 13:29:00,37.9,13.2,30.20,South,180,0.0,0.0,36,0.00,,---,0.00,VWS V14.01,2013-02-27 20:29:00,
2013-02-27 13:34:00,37.8,13.1,30.20,SSE,166,5.2,6.2,36,0.00,,---,0.00,VWS V14.01,2013-02-27 20:34:00,
2013-02-27 13:39:00,37.8,12.6,30.20,ESE,118,0.0,0.0,35,0.00,,---,0.00,VWS V14.01,2013-02-27 20:39:00,
2013-02-27 13:44:00,38.0,13.8,30.19,SE,141,0.0,0.0,36,0.00,,---,0.00,VWS V14.01,2013-02-27 20:44:00,
2013-02-27 13:49:00,38.0,12.9,30.19,ESE,117,0.0,0.0,35,0.00,,---,0.00,VWS V14.01,2013-02-27 20:49:00,
2013-02-27 13:54:00,38.0,12.8,30.19,SE,146,0.0,0.0,35,0.00,,---,0.00,VWS V14.01,2013-02-27 20:54:00,
2013-02-27 13:59:00,38.1,12.8,30.19,SE,143,0.0,0.0,35,0.00,,---,0.00,VWS V14.01,2013-02-27 20:59:00,
2013-02-27 14:04:00,38.3,13.6,30.19,SE,145,3.5,4.4,36,0.00,,---,0.00,VWS V14.01,2013-02-27 21:04:00,
2013-02-27 14:09:00,38.0,13.3,30.19,SE,146,4.3,7.9,36,0.00,,---,0.00,VWS V14.01,2013-02-27 21:09:00,
2013-02-27 14:14:00,37.6,13.6,30.19,ESE,120,0.0,0.0,37,0.00,,---,0.00,VWS V14.01,2013-02-27 21:14:00,
2013-02-27 14:19:00,37.9,14.3,30.18,SSE,159,0.0,0.0,38,0.00,,---,0.00,VWS V14.01,2013-02-27 21:19:00,
2013-02-27 14:24:00,38.2,14.4,30.19,SE,145,0.0,6.5,37,0.00,,---,0.00,VWS V14.01,2013-02-27 21:24:00,
2013-02-27 14:29:00,37.7,13.5,30.19,ESE,103,5.4,9.1,36,0.00,,---,0.00,VWS V14.01,2013-02-27 21:29:00,
2013-02-27 14:34:00,37.0,13.4,30.19,East,87,0.0,2.2,37,0.00,,---,0.00,VWS V14.01,2013-02-27 21:34:00,
2013-02-27 14:39:00,36.8,14.4,30.19,SSW,207,0.0,0.0,39,0.00,,---,0.00,VWS V14.01,2013-02-27 21:39:00,
2013-02-27 14:44:00,36.6,13.1,30.19,East,89,0.0,0.0,38,0.00,,---,0.00,VWS V14.01,2013-02-27 21:44:00,
2013-02-27 14:49:00,36.4,13.7,30.19,SSW,212,0.0,0.0,39,0.00,,---,0.00,VWS V14.01,2013-02-27 21:49:00,
2013-02-27 14:54:00,36.3,14.0,30.19,SSE,162,4.5,4.5,39,0.00,,---,0.00,VWS V14.01,2013-02-27 21:54:00,
2013-02-27 14:59:00,36.3,14.7,30.19,SSW,201,0.0,3.4,41,0.00,,---,0.00,VWS V14.01,2013-02-27 21:59:00,
2013-02-27 15:04:00,36.2,14.2,30.19,SE,142,0.0,4.2,40,0.00,,---,0.00,VWS V14.01,2013-02-27 22:04:00,
2013-02-27 15:09:00,36.3,14.9,30.19,SW,214,8.0,11.3,41,0.00,,---,0.00,VWS V14.01,2013-02-27 22:09:00,
2013-02-27 15:14:00,36.3,14.9,30.19,SE,146,0.0,0.0,41,0.00,,---,0.00,VWS V14.01,2013-02-27 22:14:00,
2013-02-27 15:19:00,36.2,14.2,30.19,SSE,148,0.0,1.2,40,0.00,,---,0.00,VWS V14.01,2013-02-27 22:19:00,
2013-02-27 15:25:00,36.0,14.8,30.19,SSE,155,0.0,0.0,41,0.00,,---,0.00,VWS V14.01,2013-02-27 22:25:00,
2013-02-27 15:30:00,35.9,14.4,30.19,SE,132,0.0,0.0,41,0.00,,---,0.00,VWS V14.01,2013-02-27 22:30:00,
2013-02-27 15:35:00,35.8,14.8,30.20,SE,131,0.0,3.2,42,0.00,,---,0.00,VWS V14.01,2013-02-27 22:35:00,
2013-02-27 15:40:00,35.6,14.5,30.19,ESE,114,0.0,0.0,42,0.00,,---,0.00,VWS V14.01,2013-02-27 22:40:00,
2013-02-27 15:45:00,35.5,14.9,30.20,SSE,166,0.0,0.0,42,0.00,,---,0.00,VWS V14.01,2013-02-27 22:45:00,
2013-02-27 15:50:00,35.4,14.9,30.20,South,177,3.4,5.1,42,0.00,,---,0.00,VWS V14.01,2013-02-27 22:50:00,
2013-02-27 15:55:00,35.4,14.9,30.20,ESE,122,0.0,2.7,43,0.00,,---,0.00,VWS V14.01,2013-02-27 22:55:00,
2013-02-27 16:00:00,35.3,14.7,30.20,SE,136,0.0,0.0,42,0.00,,---,0.00,VWS V14.01,2013-02-27 23:00:00,
2013-02-27 16:05:00,35.1,15.2,30.20,SSE,163,0.0,0.0,44,0.00,,---,0.00,VWS V14.01,2013-02-27 23:05:00,
2013-02-27 16:10:00,34.8,14.6,30.20,SSE,152,0.0,3.1,43,0.00,,---,0.00,VWS V14.01,2013-02-27 23:10:00,
2013-02-27 16:15:00,34.5,15.0,30.20,East,93,0.0,0.0,44,0.00,,---,0.00,VWS V14.01,2013-02-27 23:15:00,
2013-02-27 16:20:00,34.6,16.4,30.20,WSW,240,0.0,0.0,47,0.00,,---,0.00,VWS V14.01,2013-02-27 23:20:00,
2013-02-27 16:25:00,34.6,15.6,30.20,SW,235,0.0,0.0,45,0.00,,---,0.00,VWS V14.01,2013-02-27 23:25:00,
2013-02-27 16:30:00,34.4,15.3,30.20,SSE,165,0.0,0.0,45,0.00,,---,0.00,VWS V14.01,2013-02-27 23:30:00,
2013-02-27 16:35:00,34.2,15.0,30.20,SE,146,0.0,0.0,45,0.00,,---,0.00,VWS V14.01,2013-02-27 23:35:00,
2013-02-27 16:40:00,34.0,14.8,30.20,SE,127,0.0,0.0,45,0.00,,---,0.00,VWS V14.01,2013-02-27 23:40:00,
2013-02-27 16:45:00,34.0,14.6,30.20,SE,124,0.0,0.0,44,0.00,,---,0.00,VWS V14.01,2013-02-27 23:45:00,
2013-02-27 16:50:00,33.9,14.7,30.20,East,101,0.0,0.0,45,0.00,,---,0.00,VWS V14.01,2013-02-27 23:50:00,
2013-02-27 16:55:00,33.8,15.3,30.20,East,97,0.0,0.0,46,0.00,,---,0.00,VWS V14.01,2013-02-27 23:55:00,
2013-02-27 17:00:00,33.6,15.3,30.20,SSE,167,0.0,0.0,47,0.00,,---,0.00,VWS V14.01,2013-02-28 00:00:00,
2013-02-27 17:05:00,33.4,15.3,30.20,East,101,0.0,3.1,47,0.00,,---,0.00,VWS V14.01,2013-02-28 00:05:00,
2013-02-27 17:10:00,32.8,14.8,30.20,East,83,0.0,3.1,47,0.00,,---,0.00,VWS V14.01,2013-02-28 00:10:00,
2013-02-27 17:15:00,32.4,14.8,30.20,East,83,0.0,0.0,48,0.00,,---,0.00,VWS V14.01,2013-02-28 00:15:00,
2013-02-27 17:20:00,32.1,14.9,30.20,East,83,0.0,0.0,48,0.00,,---,0.00,VWS V14.01,2013-02-28 00:20:00,
2013-02-27 17:25:00,31.7,14.9,30.20,SSE,165,2.4,3.5,49,0.00,,---,0.00,VWS V14.01,2013-02-28 00:25:00,
2013-02-27 17:30:00,31.5,15.1,30.20,South,181,0.0,0.0,50,0.00,,---,0.00,VWS V14.01,2013-02-28 00:30:00,
2013-02-27 17:35:00,31.2,15.2,30.20,SSE,152,0.0,0.0,51,0.00,,---,0.00,VWS V14.01,2013-02-28 00:35:00,
2013-02-27 17:40:00,30.9,15.1,30.20,SSE,150,0.0,0.0,51,0.00,,---,0.00,VWS V14.01,2013-02-28 00:40:00,
2013-02-27 17:45:00,30.5,14.8,30.20,SSE,150,0.0,0.0,52,0.00,,---,0.00,VWS V14.01,2013-02-28 00:45:00,
2013-02-27 17:50:00,30.2,14.8,30.21,SSE,150,0.0,0.0,52,0.00,,---,0.00,VWS V14.01,2013-02-28 00:50:00,
2013-02-27 17:55:00,30.0,14.9,30.21,SSE,150,0.0,0.0,53,0.00,,---,0.00,VWS V14.01,2013-02-28 00:55:00,
2013-02-27 18:00:00,29.8,15.0,30.21,SSE,150,0.0,0.0,54,0.00,,---,0.00,VWS V14.01,2013-02-28 01:00:00,
2013-02-27 18:05:00,29.5,14.8,30.21,WSW,252,0.0,0.0,54,0.00,,---,0.00,VWS V14.01,2013-02-28 01:05:00,
2013-02-27 18:10:00,29.4,15.0,30.22,South,176,0.0,0.0,54,0.00,,---,0.00,VWS V14.01,2013-02-28 01:10:00,
2013-02-27 18:15:00,29.3,14.9,30.22,South,176,0.0,0.0,54,0.00,,---,0.00,VWS V14.01,2013-02-28 01:15:00,
2013-02-27 18:20:00,29.3,15.2,30.22,South,176,0.0,0.0,55,0.00,,---,0.00,VWS V14.01,2013-02-28 01:20:00,
2013-02-27 18:25:00,29.2,15.2,30.22,South,176,0.0,0.0,55,0.00,,---,0.00,VWS V14.01,2013-02-28 01:25:00,
2013-02-27 18:30:00,29.1,15.1,30.22,South,176,0.0,0.0,55,0.00,,---,0.00,VWS V14.01,2013-02-28 01:30:00,
2013-02-27 18:35:00,28.9,15.3,30.22,South,176,0.0,0.0,56,0.00,,---,0.00,VWS V14.01,2013-02-28 01:35:00,
2013-02-27 18:40:00,28.8,15.2,30.23,South,176,0.0,0.0,56,0.00,,---,0.00,VWS V14.01,2013-02-28 01:40:00,
2013-02-27 18:45:00,28.7,15.2,30.23,South,176,0.0,0.0,57,0.00,,---,0.00,VWS V14.01,2013-02-28 01:45:00,
2013-02-27 18:50:00,28.6,15.4,30.23,South,176,0.0,0.0,57,0.00,,---,0.00,VWS V14.01,2013-02-28 01:50:00,
2013-02-27 18:55:00,28.4,15.6,30.23,South,176,0.0,0.0,58,0.00,,---,0.00,VWS V14.01,2013-02-28 01:55:00,
2013-02-27 19:00:00,28.3,15.3,30.23,South,176,0.0,0.0,58,0.00,,---,0.00,VWS V14.01,2013-02-28 02:00:00,
2013-02-27 19:05:00,28.0,15.1,30.23,South,176,0.0,0.0,58,0.00,,---,0.00,VWS V14.01,2013-02-28 02:05:00,
2013-02-27 19:10:00,27.8,15.4,30.23,South,176,0.0,0.0,59,0.00,,---,0.00,VWS V14.01,2013-02-28 02:10:00,
2013-02-27 19:15:00,27.6,15.2,30.23,South,176,0.0,0.0,59,0.00,,---,0.00,VWS V14.01,2013-02-28 02:15:00,
2013-02-27 19:20:00,27.6,15.2,30.23,South,176,0.0,0.0,59,0.00,,---,0.00,VWS V14.01,2013-02-28 02:20:00,
2013-02-27 22:59:00,26.6,21.2,30.12,ESE,110,0.0,0.0,80,0.00,,---,0.00,VWS V14.01,2013-02-28 05:59:00,
2013-02-27 23:40:00,19.0,11.2,30.22,South,183,0.0,0.0,71,0.00,,---,0.00,VWS V14.01,2013-02-28 06:40:00,
2013-02-27 23:45:00,18.8,11.0,30.22,South,183,0.0,0.0,71,0.00,,---,0.00,VWS V14.01,2013-02-28 06:45:00,
2013-02-27 23:50:00,18.6,11.0,30.22,South,183,0.0,0.0,72,0.00,,---,0.00,VWS V14.01,2013-02-28 06:50:00,
2013-02-27 23:55:00,18.5,10.9,30.22,South,183,0.0,0.0,72,0.00,,---,0.00,VWS V14.01,2013-02-28 06:55:00,
2013-02-27 23:59:00,26.6,21.2,30.12,ESE,110,0.0,0.0,80,0.00,,---,0.00,VWS V14.01,2013-02-28 06:59:00,